Regional Weather Roundup
Issued by NWS Newport/Morehead, NC

Current Version | Previous Version | Graphics & Text | Print | Product List | Glossary Off
Versions: 1 2 3 4 5 6 7 8 9 10 11 12 13 14 15 16 17 18 19 20 21 22 23 24 25 26 27 28 29 30 31 32 33 34 35 36 37 38 39 40 41 42 43 44 45 46 47 48 49 50

000
ASUS42 KMHX 281910
RWRMHX
WEATHER ROUNDUP FOR EASTERN NORTH CAROLINA
NATIONAL WEATHER SERVICE NEWPORT/MOREHEAD CITY NC
300 PM EDT THU AUG 28 2014

NOTE: "FAIR" INDICATES FEW OR NO CLOUDS BELOW 12,000 FEET
WITH NO SIGNIFICANT WEATHER AND/OR OBSTRUCTIONS TO VISIBILITY

NCZ015>017-031-032-045>047-102-103-282000-
NORTH COAST

CITY           SKY/WX    TMP DP  RH WIND       PRES   REMARKS
EDENTON        SUNNY     86  72  62 SW6       29.94F
ELIZABETH CITY MOSUNNY   87  71  58 VRB3      29.94F
KITTY HAWK     PTCLDY    83  72  70 N5        29.94S
MANTEO         MOSUNNY   84  72  68 CALM      29.95F

$$

NCZ045>047-081-094-103-104-282000-
CENTRAL COAST

CITY           SKY/WX    TMP DP  RH WIND       PRES   REMARKS
FRISCO         MOSUNNY   85  68  56 W9        29.95F
SWANQUARTER      N/A     88 N/A N/A SW7       29.91S

$$

NCZ095-097-098-100-101-282000-
SOUTHERN COAST

CITY           SKY/WX    TMP DP  RH WIND       PRES   REMARKS
BEAUFORT       SUNNY     85  70  60 SW13      29.96F
CEDAR ISLAND     N/A     88 N/A N/A W8        30.00S
JACKSONVILLE   SUNNY     90  67  46 VRB5      29.95F
NEWPORT        NOT AVBL
PINEY ISLAND   CLEAR     90  68  48 W8        29.95F
WILMINGTON     SUNNY     90  63  40 VRB7      29.96F


$$

NCZ011>013-027>030-043-044-078>080-089-090>093-098-282000-
COASTAL PLAIN

CITY           SKY/WX    TMP DP  RH WIND       PRES   REMARKS
AHOSKIE        SUNNY     86  71  60 CALM      29.95F
CLINTON        SUNNY     92  71  51 CALM      29.96F
ELIZABETHTOWN  SUNNY     91  61  37 W7        29.97F
GOLDSBORO      SUNNY     90  76  63 VRB3      29.94F HX 101
GREENVILLE     MOSUNNY   88  72  58 W3        29.97F
HAVELOCK       SUNNY     91  66  43 NW7       29.96F
KENANSVILLE    SUNNY     90  66  45 CALM      29.97F
KINSTON        MOSUNNY   91  70  49 W5        29.96F
NEW BERN       SUNNY     93  67  42 W6        29.96F
RICHLANDS      SUNNY     91  66  43 SW5       29.96F
ROANOKE RAPIDS NOT AVBL
ROCKY MOUNT    MOSUNNY   87  71  58 VRB5      29.96F
WASHINGTON     PTSUNNY   87  70  56 CALM      29.95F
WHITEVILLE     SUNNY     90  64  41 SW3       29.97F

$$

AMZ130-135-150-152-154-156-158-170-250-252-270-ANZ085-086-088-633-658-670-282000-
MARINE OBSERVATIONS

STATION/POSITION TIME  TEMP    WIND        PRES    WAVE   SWELL
                       AIR SEA DIR/SP/G            HT/PER HT/PER
                 (UTC) (F)     (DEG/KT/KT) (MB)    (FT/S) (FT/S)
CHESAPEAKE LIGHT 1800   78     320/  4/  5 1015.1
BUOY 44014       1900   76 76  350/ 12/ 14 1013.6    4/11   3/11
DUCK             1900   77 78   30/ 12/ 13 1013.3
2E DUCK          1900                        N/A     3/11   2/11
OREGON INLET     1900   81 77   20/  8/ 10 1014.0
BUOY 44095       1900      77                N/A     4/11   2/11
20E OREGON INLET NOT AVBL
HATTERAS CG      1900   85 78  250/  8/ 11 1014.8
DIAMOND BUOY     1900   81     250/ 12/ 14 1014.5    5/11   5/11
CAPE LOOKOUT     1800   81     250/ 11/ 14 1015.3
BEAUFORT LAB     1900   83 79  210/  7/ 12 1014.1
30 SE NEW RIVER  1900   81 81  240/ 14/ 16 1015.4    4/10   3/10
5 SE WRIGHTSVILL 1900   79 81  210/ 14/ 17   N/A
BUOY 41002       1752   79 82  350/  4/  6 1016.9    7/ 8   7/ 8
BUOY 41004       1900   80 84  260/  4/  6 1016.2    4/11   3/11

$$



USA.gov is the U.S. government's official web portal to all federal, state and local government web resources and services.